Location: A�t �Alizem
(31.2076°N, 8.7872°W)
Time: 05:30:01
(UTC+00:00)

DMSP B5D1-3 - Pass Details

Date: 27 November 2020
Orbit: 766 x 781 km, 98.5° (Epoch: 25 January)

Event Time Altitude Azimuth Distance (km) Brightness Sun altitude
Exits shadow 19:11:20 27° 24° (NNE) 1,479 5.6 -20.8°
Maximum altitude 19:14:12 69° 102° (ESE) 829 4.4 -21.4°
Drops below altitude 10° 19:19:17 10° 185° (S) 2,312 7.2 -22.5°
Sets 19:21:35 0° 188° (S) 3,233 8.0 -22.9°
